SCP
0 0 0 0 0 0 0 0 0 0 0 0 0 0 0 0 1 1 1 1 1 1 1 0 0 0 0 0 0 0 0 0 0 0 0 0 0 0 0 0 0 0 0 0
0 0 0 0 0 0 0 0 0 0 0 0 0 0 0 0 1 1 1 2 1 1 1 0 0 0 0 0 0 0 0 0 0 0 0 0 0 0 0 0 0 0 0 0
0 0 0 0 0 0 0 0 0 0 0 0 0 0 0 0 1 1 1 1 1 1 1 1 0 0 0 0 0 0 0 0 0 0 0 0 0 0 0 0 0 0 0 0
0 0 0 0 0 0 0 0 0 0 0 0 0 0 0 0 0 1 1 1 1 1 1 0 0 0 0 0 0 0 0 0 0 0 0 0 0 0 0 0 0 0 0 0
0 0 0 0 0 0 0 0 0 0 0 0 0 0 0 0 0 1 1 1 1 1 1 0 0 0 0 0 0 0 0 0 0 0 0 0 0 0 0 0 0 0 0 0
0 0 0 0 0 0 0 0 0 0 0 0 0 0 0 0 0 0 1 1 1 1 1 0 0 0 0 0 0 0 0 0 0 0 0 0 0 0 0 0 0 0 0 0
0 0 0 0 0 0 0 0 0 0 0 0 0 0 0 0 0 0 0 1 1 1 1 0 0 0 0 0 0 0 0 0 0 0 0 0 0 0 0 0 0 0 0 0
0 0 0 0 0 0 0 0 0 0 0 0 0 0 0 0 0 0 0 1 1 1 0 0 0 0 0 0 0 0 0 0 0 0 0 0 0 0 0 0 0 0 0 0
0 0 0 0 0 0 0 0 0 0 0 0 0 0 0 0 0 0 0 0 0 0 0 0 0 0 0 0 0 0 0 0 0 0 0 0 0 0 0 0 0 0 0 0
0 0 0 0 0 0 0 0 0 0 0 0 0 0 0 0 0 0 0 0 0 0 0 0 0 0 0 0 0 0 0 0 0 0 0 0 0 0 0 0 0 0 0 0
0 0 0 0 0 0 0 0 0 0 0 0 0 0 0 0 0 0 0 0 0 0 0 0 0 0 0 0 0 0 0 0 0 0 0 0 0 0 0 0 0 0 0 0
0 0 0 0 0 0 0 0 0 0 0 0 0 0 0 0 0 0 0 0 0 0 0 0 0 0 0 0 0 0 0 0 0 0 0 0 0 0 0 0 0 0 0 0
0 0 0 0 0 0 0 0 0 0 0 0 0 0 0 0 0 0 0 0 0 0 0 0 0 0 0 0 0 0 0 0 0 0 0 0 0 0 0 0 0 0 0 0
0 0 0 0 0 0 0 0 0 0 0 0 0 0 0 0 0 0 0 0 0 0 0 0 0 0 0 0 0 0 0 0 0 0 0 0 0 0 0 0 0 0 0 0
0 0 0 0 0 0 0 0 0 0 0 0 0 0 0 0 0 0 0 0 0 0 0 0 0 0 0 0 0 0 0 0 0 0 0 0 0 0 0 0 0 0 0 0
0 0 0 0 0 0 0 0 0 0 0 0 0 0 0 0 0 0 0 0 0 0 0 0 0 0 0 0 0 0 0 0 0 0 0 0 0 0 0 0 0 0 0 0
0 0 0 0 0 0 0 0 0 0 0 0 0 0 0 0 0 0 0 0 0 0 0 0 0 0 0 0 0 0 0 0 0 0 0 0 0 0 0 0 0 0 0 0
0 0 0 0 0 0 0 0 0 0 0 0 0 0 0 0 0 0 0 0 0 0 0 0 0 0 0 0 0 0 0 0 0 0 0 0 0 0 0 0 0 0 0 0
0 0 0 0 0 0 0 0 0 0 0 0 0 0 0 0 0 0 0 0 0 0 0 0 0 0 0 0 0 0 0 0 0 0 0 0 0 0 0 0 0 0 0 0
0 0 0 0 0 0 0 0 0 0 0 0 0 0 0 0 0 0 0 0 0 0 0 0 0 0 0 0 0 0 0 0 0 0 0 0 0 0 0 0 0 0 0 0
0 0 0 0 0 0 0 0 0 0 0 0 0 0 0 0 0 0 0 0 0 0 0 0 0 0 0 0 0 0 0 0 0 0 0 0 0 0 0 0 0 0 0 0
0 0 0 0 0 0 0 0 0 0 0 0 0 0 0 0 0 0 0 0 0 0 0 0 0 0 0 0 0 0 0 0 0 0 0 0 0 0 0 0 0 0 0 0
0 0 0 0 0 0 0 0 0 0 0 0 0 0 0 0 0 0 0 0 0 0 0 0 0 0 0 0 0 0 0 0 0 0 0 0 0 0 0 0 0 0 0 0
0 0 0 0 0 0 0 0 0 0 0 0 0 0 0 0 0 0 0 0 0 0 0 0 0 0 0 0 0 0 0 0 0 0 0 0 0 0 0 0 0 0 0 0
0 0 0 0 0 0 0 0 0 0 0 0 0 0 0 0 0 0 0 0 0 0 0 0 0 0 0 0 0 0 0 0 0 0 0 0 0 0 0 0 0 0 0 0
0 0 0 0 0 0 0 0 0 0 0 0 0 0 0 0 0 0 0 0 0 0 0 0 0 0 0 0 0 0 0 0 0 0 0 0 0 0 0 0 0 0 0 0
Wind_Speed
2 3 3 2 1 1 1 1 1 1 1 0 2 2 2 3 3 2 2 2 2 3 4 4 4 4 3 3 3 3 2 3 3 2 2 2 2 2 3 3 4 4 4 4
3 4 3 2 1 1 1 1 1 1 1 1 2 3 4 3 3 2 2 1 2 2 3 3 4 3 3 3 2 2 2 2 2 2 1 1 1 1 2 2 3 4 4 4
4 2 2 2 3 2 2 1 0 0 1 2 2 3 3 2 2 2 1 1 1 2 2 3 3 3 3 2 2 2 2 2 2 2 1 1 1 1 2 2 3 4 4 5
4 3 2 2 3 3 1 1 0 1 1 1 2 2 3 4 4 3 2 2 1 1 1 2 3 3 2 2 2 2 2 2 2 2 2 2 2 2 2 2 2 3 4 5
3 4 4 3 3 3 1 2 2 2 2 1 2 2 3 4 4 3 3 2 2 2 1 2 2 3 3 2 2 2 2 2 3 3 2 2 2 2 2 2 3 3 3 4
2 2 3 3 2 1 0 1 1 1 1 1 1 2 2 3 3 3 3 3 2 2 2 2 2 3 3 2 2 2 2 3 3 2 2 2 2 2 2 2 2 2 2 3
2 2 2 2 1 1 0 0 1 1 0 1 2 1 3 1 2 2 3 3 2 2 2 2 2 3 2 2 2 2 2 2 2 2 2 2 2 2 2 2 2 2 2 3
1 1 2 2 2 1 1 1 0 1 1 0 0 3 2 2 2 2 3 3 3 2 2 2 2 3 3 2 2 2 2 2 2 2 2 2 2 2 1 2 2 2 2 2
1 1 1 2 2 2 1 1 1 1 1 1 3 3 1 2 1 1 2 3 2 2 2 1 1 2 2 3 2 2 2 2 2 2 3 2 2 2 1 1 1 1 1 2
2 1 1 1 1 2 2 1 0 1 0 1 2 2 3 2 2 2 2 2 2 2 2 1 2 2 2 2 2 2 2 2 2 2 2 2 2 2 2 2 2 2 2 2
2 2 1 0 1 1 1 1 1 0 0 1 2 3 1 2 3 3 2 2 2 2 2 2 2 2 2 2 3 2 2 2 2 2 2 2 2 2 2 2 2 1 2 2
2 1 1 0 1 2 1 1 0 1 2 1 1 5 1 2 2 3 2 2 2 2 2 2 2 2 2 2 2 2 2 2 1 1 2 2 1 1 1 2 2 1 2 2
1 1 1 1 1 1 1 1 1 0 0 2 3 5 0 1 1 1 1 1 1 2 2 2 1 1 1 1 2 2 1 1 1 1 1 1 1 1 1 1 2 2 1 1
1 1 2 3 2 1 2 2 2 2 2 3 6 6 4 3 2 1 1 1 1 1 1 1 1 1 1 1 1 1 1 1 1 1 1 1 1 1 1 1 2 2 1 1
1 1 2 2 2 2 3 4 4 6 6 6 5 5 7 3 3 2 2 2 2 2 2 2 1 1 1 1 1 1 1 1 1 1 1 0 1 1 1 2 2 2 2 1
1 1 0 3 1 3 5 6 6 7 6 6 6 9 7 3 1 2 2 3 3 3 3 2 2 2 1 1 1 0 0 1 1 1 0 1 1 1 1 1 1 1 1 2
2 2 1 2 2 3 7 8 9 6 7 7 9 9 2 2 3 3 4 4 4 4 3 3 3 3 2 1 1 1 0 1 1 1 1 1 1 1 1 1 1 1 1 1
3 3 1 1 3 5 7 2 7 7 7 8 7 6 3 3 2 2 4 5 4 4 4 3 3 2 2 2 1 1 1 1 1 1 1 1 1 1 1 1 1 1 1 1
1 3 2 1 2 8 5 3 5 5 7 9 11 9 5 2 2 4 4 5 5 4 4 3 3 3 2 2 2 2 1 1 1 0 0 1 1 1 1 1 1 1 1 1
0 1 2 2 3 7 5 3 3 3 6 6 10 9 6 4 2 4 2 3 3 3 3 3 3 3 3 2 2 2 2 1 1 1 1 0 0 0 1 1 1 1 1 1
3 3 4 4 5 10 4 5 5 4 7 3 7 8 8 7 6 3 3 3 3 3 3 3 3 3 3 3 3 3 2 2 2 1 0 0 0 1 1 0 0 1 1 1
9 8 7 5 6 11 6 8 9 8 1 2 4 5 6 5 3 3 3 3 3 3 3 3 3 2 2 3 3 3 3 2 1 1 1 0 0 0 0 0 0 0 0 0
9 9 7 11 11 4 9 9 7 2 2 3 3 4 5 4 4 4 3 3 3 4 3 3 3 2 2 2 3 4 3 1 2 2 1 1 1 0 0 1 1 0 0 1
6 4 4 7 11 7 8 8 7 5 5 4 4 4 5 6 5 5 4 4 4 3 4 3 3 3 3 3 3 3 2 2 3 2 2 2 1 1 0 0 1 1 1 1
7 8 5 8 9 6 7 10 10 7 6 5 5 5 6 6 6 6 5 5 5 4 3 4 4 5 5 3 3 3 3 3 3 3 2 2 1 1 1 1 1 2 2 2
9 11 11 11 9 8 7 6 7 8 9 8 7 6 6 7 7 6 5 5 5 5 4 4 5 5 4 4 3 3 3 4 4 3 3 2 2 2 1 1 1 2 2 2
Wind_Direction
25 57 49 359 305 342 85 94 37 48 101 138 194 218 235 179 174 180 173 164 154 134 114 109 103 97 84 74 76 73 57 38 33 30 24 19 15 18 30 26 27 19 19 15
79 42 350 317 331 54 68 92 4 22 67 226 215 246 246 186 179 187 183 175 167 136 113 108 105 101 92 74 60 68 56 43 33 22 1 19 17 29 33 18 25 22 22 19
76 24 339 7 41 51 38 356 343 343 304 222 219 251 197 163 164 163 180 183 170 157 138 126 123 109 97 81 64 51 53 43 32 25 25 27 36 35 21 10 16 16 19 19
51 357 359 45 32 0 36 18 265 228 241 226 221 258 208 182 183 182 188 186 175 143 140 139 129 122 113 104 88 76 55 41 35 39 44 41 38 17 2 5 13 13 20 21
41 4 4 37 6 358 75 309 278 255 265 282 247 252 233 169 191 195 184 171 153 139 147 117 109 120 118 111 98 90 86 62 45 40 50 55 45 29 27 26 24 16 18 26
86 41 22 2 328 337 198 280 261 272 272 262 218 217 263 189 190 175 153 142 136 121 112 103 100 109 100 94 87 83 83 69 54 47 44 53 53 43 34 20 20 13 14 19
44 75 44 332 329 127 302 5 44 355 273 241 134 208 254 130 112 135 148 147 138 129 130 125 124 128 116 101 83 75 82 70 57 54 45 41 52 51 40 20 19 15 9 9
65 1 21 0 7 325 294 333 97 212 228 292 167 233 246 100 87 87 114 127 123 130 138 128 132 138 129 116 98 83 74 59 50 48 40 38 41 48 35 26 23 17 9 356
67 349 5 24 330 337 347 48 333 22 72 298 240 225 248 94 94 123 129 124 132 134 134 133 123 123 123 114 104 97 88 65 50 46 41 38 37 41 29 19 25 20 1 350
27 78 316 338 307 15 351 354 2 123 119 278 264 236 233 209 217 175 149 147 150 145 141 131 120 111 105 105 103 93 86 76 57 52 43 38 34 35 30 26 23 14 355 352
4 97 317 34 30 354 24 19 329 312 263 205 273 272 45 144 156 151 157 159 152 141 128 124 121 114 103 98 96 93 85 71 56 56 52 44 36 31 21 23 12 2 355 347
357 76 261 190 80 360 350 341 244 181 266 237 258 269 23 80 102 121 129 124 121 115 106 106 113 113 108 105 100 97 89 78 67 66 60 46 36 36 25 11 358 358 356 347
353 94 55 340 317 328 277 267 272 256 294 212 212 256 195 110 109 134 126 114 99 110 108 98 106 113 113 113 109 106 101 95 77 75 67 49 29 22 18 357 350 349 351 354
13 91 181 208 234 215 239 229 207 179 197 229 228 245 258 237 225 198 155 145 136 148 156 143 129 116 104 110 115 117 103 92 88 82 71 52 12 2 0 353 353 340 342 348
33 203 260 273 287 275 252 237 206 207 219 217 233 244 252 236 223 205 175 165 175 192 192 185 178 166 153 139 123 130 101 81 89 89 73 15 3 9 5 356 346 338 341 331
61 162 302 290 261 269 269 252 229 229 235 238 260 273 255 246 213 192 186 180 205 211 203 193 183 174 182 187 193 182 115 92 104 114 85 12 19 7 351 335 332 333 329 324
150 131 119 282 324 331 277 228 199 207 214 201 222 236 210 198 213 211 201 205 214 212 199 195 196 192 193 190 176 180 119 87 98 104 62 28 14 347 324 326 330 319 314 323
143 144 164 309 10 261 247 163 180 204 234 215 229 238 225 221 235 226 210 202 209 204 196 194 188 180 169 151 142 130 104 101 99 72 28 8 350 323 328 330 309 311 321 323
169 164 164 167 263 276 273 199 173 192 258 216 218 231 230 211 329 276 227 199 197 191 185 181 171 164 154 152 148 136 130 120 112 105 333 330 318 308 320 313 318 338 3 354
210 169 173 180 221 249 253 162 147 123 279 224 197 211 201 163 228 255 187 157 156 148 146 148 143 140 144 151 141 144 157 149 199 228 243 274 256 233 247 267 321 2 0 343
169 184 198 200 232 260 234 149 133 171 249 200 184 194 182 192 212 192 139 134 146 148 147 144 145 154 163 153 143 157 169 208 228 195 156 145 198 220 233 253 11 21 12 10
178 178 195 181 214 252 175 153 189 216 217 174 184 189 186 195 188 170 162 160 157 157 161 158 157 169 160 147 152 174 205 215 157 141 144 175 229 226 180 142 35 37 78 316
203 195 190 197 215 229 175 201 215 201 205 206 198 203 185 193 207 204 198 192 191 186 183 173 169 177 177 164 168 191 212 161 141 145 173 202 193 180 160 165 187 176 176 225
226 201 216 250 257 242 221 233 237 223 220 220 208 203 193 202 209 210 207 203 202 196 191 180 175 192 212 199 187 196 177 153 158 177 192 189 185 178 146 173 191 192 212 229
205 173 205 249 266 285 255 228 229 226 223 222 223 212 204 202 214 211 213 209 204 202 195 185 193 207 217 203 197 187 167 160 174 187 189 185 179 179 192 205 213 219 224 216
188 183 188 223 216 204 233 216 203 205 217 217 217 225 216 204 213 213 215 211 201 199 193 196 205 210 212 198 199 189 177 174 179 190 191 188 185 190 198 213 275 276 256 275